Regional Weather Roundup
Issued by NWS

Current Version | Previous Version | Text Only | Print | Product List | Glossary On
Versions: 1 2 3 4 5 6 7 8 9 10 11 12 13 14 15 16 17 18 19 20 21 22 23 24 25 26 27 28 29 30 31 32 33 34 35 36 37 38 39 40 41 42 43 44 45 46 47 48 49 50
000
ASUS43 KIND 260809
RWRIN

WEATHER ROUNDUP FOR INDIANA
NATIONAL WEATHER SERVICE INDIANAPOLIS IN
300 AM EST WED NOV 26 2014

NOTE: "FAIR" INDICATES FEW OR NO CLOUDS BELOW 12,000 FEET WITH NO
SIGNIFICANT WEATHER AND/OR OBSTRUCTIONS TO VISIBILITY.

* - STATION DOES NOT REPORT WEATHER SUCH AS PRECIPITATION OR FOG.

+ - STATION NOT QUALITY CONTROLLED BY THE NATIONAL WEATHER SERVICE.
    USE DATA WITH CAUTION...ESPECIALLY DEWPOINT AND RELATIVE
    HUMIDITY OBSERVATIONS.

INZ001>003-010>013-019-020-260900-
NORTHWEST INDIANA

CITY           SKY/WX    TMP DP  RH WIND       PRES   REMARKS
GARY /AIRPORT/ CLOUDY    26  20  80 SW5       30.19S WCI  20
KNOX *+        CLOUDY    24  19  82 SE3       30.17S
LA PORTE +     CLOUDY    25  22  86 SW5       30.18R WCI  19
MICHIGAN CITY+ CLOUDY    25  19  80 S3        30.19R
MONTICELLO +   CLOUDY    25  21  82 CALM      30.17R
RENSSELAER +   CLOUDY    27  23  86 CALM      30.18R
VALPARAISO     CLOUDY    22  18  85 SE3       30.18R

$$

LMZ046-743>745-260900-
SOUTHERN LAKE MICHIGAN

STATION/POSITION TIME  TEMP WIND        PRES
                       AIR  DIR/SP/G
                 (UTC) (F)  (DEG/KT/KT) (MB)
MICHIGAN CITY    0800   23  190/  7/  9   N/A

$$

INZ004-005-014>016-021>024-260900-
NORTH CENTRAL INDIANA

CITY           SKY/WX    TMP DP  RH WIND       PRES   REMARKS
GOSHEN         CLOUDY    25  18  74 CALM      30.17S
LOGANSPORT +   CLOUDY    25  19  80 CALM      30.17S
PERU/GRISSOM   CLOUDY    25  24  96 N3        30.16S
ROCHESTER +    CLOUDY    28  23  80 CALM      30.17F
SOUTH BEND     CLOUDY    25  19  78 SE6       30.18S WCI  18
WARSAW +       CLOUDY    25  19  80 CALM      30.17S

$$

INZ006>009-017-018-025>027-260900-
NORTHEAST INDIANA

CITY           SKY/WX    TMP DP  RH WIND       PRES   REMARKS
ANGOLA *+      CLOUDY    25  19  80 CALM      30.16S
AUBURN +       CLOUDY    27  19  74 CALM      30.18R
FORT WAYNE     CLOUDY    25  20  81 CALM      30.19R
HUNTINGTON +   CLOUDY    25  20  83 CALM      30.17S

$$

INZ028-029-035-036-043>045-051>053-260900-
WEST CENTRAL INDIANA

CITY           SKY/WX    TMP DP  RH WIND       PRES   REMARKS
GREENCASTLE +  CLOUDY    25  21  86 CALM      30.16S
LAFAYETTE      CLOUDY    24  19  81 CALM      30.17S
TERRE HAUTE    PTCLDY    23  20  88 E6        30.16F WCI  16

$$

INZ030>032-037>040-046>048-054>057-064-065-260900-
CENTRAL INDIANA

CITY           SKY/WX    TMP DP  RH WIND       PRES   REMARKS
CP ATTERBURY + CLOUDY    30  25  80 E5        30.16F WCI  25
FRANKFORT +    CLOUDY    25  22  87 CALM      30.17F
GREENWOOD *+   CLOUDY    27  19  74 NE5       30.16  WCI  21
INDIANAPOLIS   CLOUDY    26  20  77 N3        30.15S
-EAGLE CREEK   CLOUDY    26  20  77 CALM      30.15S
KOKOMO *+      CLOUDY    25  18  74 NE5       30.17S WCI  19
MARION +         N/A     25  20  83 NE3       30.17S
MT COMFORT *+  CLOUDY    27  18  69 E3        30.16S
SHELBYVILLE    CLOUDY    29  23  78 N3        30.15F
ZIONSVILLE +   CLOUDY    26  20  80 CALM      30.15F

$$

INZ033-034-041-042-049-050-058-059-260900-
EAST CENTRAL INDIANA

CITY           SKY/WX    TMP DP  RH WIND       PRES   REMARKS
MUNCIE         CLOUDY    27  22  81 VRB3      30.16R

$$

INZ060-061-067>069-081>083-085>088-260900-
SOUTHWEST INDIANA

CITY           SKY/WX    TMP DP  RH WIND       PRES   REMARKS
EVANSVILLE     CLEAR     27  23  85 N3        30.18R
HUNTINGBURG *+ CLEAR     25  21  86 N3        30.16S
WASHINGTON +   CLOUDY    29  25  86 NE5       30.17R WCI  24

$$

INZ062-063-066-070>080-084-089>092-260900-
SOUTH CENTRAL AND SOUTHEAST INDIANA

CITY           SKY/WX    TMP DP  RH WIND       PRES   REMARKS
BLOOMINGTON    CLOUDY    27  23  85 CALM      30.15S
SEYMOUR +      CLOUDY    30  25  80 NE7       30.16F WCI  23

$$




USA.gov is the U.S. government's official web portal to all federal, state and local government web resources and services.